When you browse on this site, cookies collect data to enhance your experience and personalize the content and advertising you see.
Visit our Privacy Policy to learn more. By continuing to use the site, you agree to this use of cookies and data.
  • en Suisse
  • Liste des pays
  • À 7 jours
  • Température de l'eau
  • Carte satellitaire
  • Carte météo
  • Widgets météo
  • user-avatar
    Se connecter

    Météo par heure à Hérât

    Ce jour, 18 Juin, Mardi

    Heure Température Précipitation Vent Pression Humidité
    00:00 +25°C° 0 mm 3 m/s 677 mmHg 17%
    01:00 +24°C° 0 mm 3 m/s 676 mmHg 18%
    02:00 +24°C° 0 mm 3 m/s 676 mmHg 18%
    03:00 +22°C° 0 mm 3 m/s 676 mmHg 18%
    04:00 +22°C° 0 mm 3 m/s 676 mmHg 18%
    05:00 +25°C° 0 mm 3 m/s 676 mmHg 16%
    06:00 +27°C° 0 mm 4 m/s 677 mmHg 14%
    07:00 +29°C° 0 mm 5 m/s 677 mmHg 13%
    08:00 +32°C° 0 mm 7 m/s 678 mmHg 12%
    09:00 +33°C° 0 mm 8 m/s 678 mmHg 12%
    10:00 +34°C° 0 mm 9 m/s 678 mmHg 11%
    11:00 +35°C° 0 mm 9 m/s 678 mmHg 11%
    12:00 +37°C° 0 mm 10 m/s 677 mmHg 11%
    13:00 +37°C° 0 mm 10 m/s 677 mmHg 11%
    14:00 +37°C° 0 mm 10 m/s 677 mmHg 11%
    15:00 +37°C° 0 mm 10 m/s 677 mmHg 11%
    16:00 +37°C° 0 mm 10 m/s 676 mmHg 12%
    17:00 +34°C° 0 mm 9 m/s 676 mmHg 13%
    18:00 +32°C° 0 mm 8 m/s 676 mmHg 15%
    19:00 +30°C° 0 mm 6 m/s 676 mmHg 16%
    20:00 +29°C° 0 mm 6 m/s 676 mmHg 17%
    21:00 +28°C° 0 mm 6 m/s 676 mmHg 17%
    22:00 +27°C° 0 mm 6 m/s 676 mmHg 18%
    23:00 +26°C° 0 mm 5 m/s 676 mmHg 18%

    Demain, 19 Juin, Mercredi

    Heure Température Précipitation Vent Pression Humidité
    00:00 +25°C° 0 mm 5 m/s 675 mmHg 19%
    01:00 +23°C° 0 mm 4 m/s 675 mmHg 19%
    02:00 +22°C° 0 mm 4 m/s 674 mmHg 20%
    03:00 +22°C° 0 mm 3 m/s 674 mmHg 21%
    04:00 +21°C° 0 mm 3 m/s 674 mmHg 22%
    05:00 +24°C° 0 mm 3 m/s 674 mmHg 20%
    06:00 +26°C° 0 mm 3 m/s 675 mmHg 17%
    07:00 +28°C° 0 mm 3 m/s 675 mmHg 15%
    08:00 +30°C° 0 mm 5 m/s 675 mmHg 13%
    09:00 +33°C° 0 mm 7 m/s 676 mmHg 12%
    10:00 +35°C° 0 mm 9 m/s 676 mmHg 10%
    11:00 +37°C° 0 mm 10 m/s 676 mmHg 10%
    12:00 +38°C° 0 mm 11 m/s 676 mmHg 10%
    13:00 +39°C° 0 mm 12 m/s 676 mmHg 10%
    14:00 +38°C° 0 mm 12 m/s 675 mmHg 11%
    15:00 +38°C° 0 mm 12 m/s 675 mmHg 11%
    16:00 +38°C° 0 mm 12 m/s 675 mmHg 12%
    17:00 +36°C° 0 mm 11 m/s 675 mmHg 13%
    18:00 +34°C° 0 mm 10 m/s 675 mmHg 15%
    19:00 +32°C° 0 mm 10 m/s 675 mmHg 16%
    20:00 +31°C° 0 mm 9 m/s 675 mmHg 16%
    21:00 +29°C° 0 mm 8 m/s 675 mmHg 17%
    22:00 +28°C° 0 mm 8 m/s 676 mmHg 17%
    23:00 +27°C° 0 mm 7 m/s 675 mmHg 20%

    Après-demain, 20 Juin, Jeudi

    Heure Température Précipitation Vent Pression Humidité
    00:00 +26°C° 0 mm 5 m/s 675 mmHg 22%
    01:00 +25°C° 0 mm 4 m/s 675 mmHg 24%
    02:00 +23°C° 0 mm 4 m/s 675 mmHg 24%
    03:00 +24°C° 0 mm 3 m/s 674 mmHg 24%
    04:00 +22°C° 0 mm 3 m/s 674 mmHg 25%
    05:00 +26°C° 0 mm 5 m/s 675 mmHg 22%
    06:00 +28°C° 0 mm 7 m/s 676 mmHg 19%
    07:00 +32°C° 0 mm 9 m/s 677 mmHg 16%
    08:00 +33°C° 0 mm 10 m/s 677 mmHg 15%
    09:00 +34°C° 0 mm 11 m/s 677 mmHg 14%
    10:00 +36°C° 0 mm 13 m/s 678 mmHg 13%
    11:00 +37°C° 0 mm 12 m/s 677 mmHg 13%
    12:00 +38°C° 0 mm 12 m/s 677 mmHg 12%
    13:00 +38°C° 0 mm 11 m/s 677 mmHg 12%
    14:00 +38°C° 0 mm 11 m/s 677 mmHg 12%
    15:00 +38°C° 0 mm 11 m/s 676 mmHg 12%
    16:00 +38°C° 0 mm 11 m/s 676 mmHg 12%
    17:00 +36°C° 0 mm 10 m/s 676 mmHg 13%
    18:00 +33°C° 0 mm 9 m/s 676 mmHg 14%
    19:00 +32°C° 0 mm 7 m/s 676 mmHg 15%
    20:00 +30°C° 0 mm 7 m/s 676 mmHg 15%
    21:00 +29°C° 0 mm 7 m/s 677 mmHg 16%
    22:00 +28°C° 0 mm 7 m/s 677 mmHg 16%
    23:00 +27°C° 0 mm 6 m/s 676 mmHg 16%

    21 Juin, Vendredi

    Heure Température Précipitation Vent Pression Humidité
    00:00 +26°C° 0 mm 6 m/s 676 mmHg 17%
    01:00 +26°C° 0 mm 5 m/s 676 mmHg 17%
    02:00 +25°C° 0 mm 4 m/s 675 mmHg 17%
    03:00 +25°C° 0 mm 4 m/s 675 mmHg 17%
    04:00 +23°C° 0 mm 4 m/s 675 mmHg 18%
    05:00 +26°C° 0 mm 5 m/s 676 mmHg 16%
    06:00 +28°C° 0 mm 6 m/s 677 mmHg 15%
    07:00 +30°C° 0 mm 7 m/s 677 mmHg 13%
    08:00 +32°C° 0 mm 8 m/s 677 mmHg 13%
    09:00 +34°C° 0 mm 10 m/s 678 mmHg 13%
    10:00 +36°C° 0 mm 11 m/s 678 mmHg 12%
    11:00 +37°C° 0 mm 11 m/s 677 mmHg 12%
    12:00 +38°C° 0 mm 11 m/s 677 mmHg 11%
    13:00 +38°C° 0 mm 11 m/s 677 mmHg 10%
    14:00 +38°C° 0 mm 11 m/s 677 mmHg 10%
    15:00 +38°C° 0 mm 11 m/s 677 mmHg 10%
    16:00 +38°C° 0 mm 11 m/s 676 mmHg 10%
    17:00 +36°C° 0 mm 10 m/s 676 mmHg 12%
    18:00 +34°C° 0 mm 9 m/s 676 mmHg 13%
    19:00 +32°C° 0 mm 8 m/s 676 mmHg 14%
    20:00 +30°C° 0 mm 7 m/s 676 mmHg 15%
    21:00 +29°C° 0 mm 7 m/s 677 mmHg 15%
    22:00 +28°C° 0 mm 7 m/s 677 mmHg 16%
    23:00 +27°C° 0 mm 6 m/s 676 mmHg 16%

    22 Juin, Samedi

    Heure Température Précipitation Vent Pression Humidité
    00:00 +26°C° 0 mm 5 m/s 676 mmHg 17%
    01:00 +25°C° 0 mm 4 m/s 676 mmHg 17%
    02:00 +25°C° 0 mm 4 m/s 676 mmHg 18%
    03:00 +24°C° 0 mm 3 m/s 676 mmHg 18%
    04:00 +22°C° 0 mm 3 m/s 676 mmHg 19%
    05:00 +25°C° 0 mm 3 m/s 676 mmHg 17%
    06:00 +27°C° 0 mm 4 m/s 677 mmHg 15%
    07:00 +29°C° 0 mm 4 m/s 678 mmHg 14%
    08:00 +32°C° 0 mm 7 m/s 678 mmHg 13%
    09:00 +34°C° 0 mm 9 m/s 678 mmHg 12%
    10:00 +36°C° 0 mm 11 m/s 679 mmHg 11%
    11:00 +37°C° 0 mm 11 m/s 679 mmHg 11%
    12:00 +38°C° 0 mm 12 m/s 678 mmHg 10%
    13:00 +38°C° 0 mm 12 m/s 678 mmHg 9%
    14:00 +38°C° 0 mm 12 m/s 678 mmHg 10%
    15:00 +38°C° 0 mm 12 m/s 678 mmHg 10%
    16:00 +37°C° 0 mm 12 m/s 678 mmHg 10%
    17:00 +36°C° 0 mm 11 m/s 678 mmHg 11%
    18:00 +33°C° 0 mm 10 m/s 678 mmHg 13%
    19:00 +31°C° 0 mm 9 m/s 678 mmHg 15%
    20:00 +29°C° 0 mm 8 m/s 678 mmHg 16%
    21:00 +28°C° 0 mm 7 m/s 678 mmHg 17%
    22:00 +27°C° 0 mm 6 m/s 678 mmHg 18%
    23:00 +26°C° 0 mm 5 m/s 678 mmHg 19%

    23 Juin, Dimanche

    Heure Température Précipitation Vent Pression Humidité
    00:00 +25°C° 0 mm 5 m/s 678 mmHg 20%
    01:00 +25°C° 0 mm 5 m/s 677 mmHg 21%
    02:00 +23°C° 0 mm 4 m/s 677 mmHg 21%
    03:00 +23°C° 0 mm 4 m/s 677 mmHg 22%
    04:00 +22°C° 0 mm 4 m/s 677 mmHg 23%
    05:00 +24°C° 0 mm 6 m/s 677 mmHg 21%
    06:00 +27°C° 0 mm 7 m/s 678 mmHg 18%
    07:00 +29°C° 0 mm 9 m/s 679 mmHg 16%
    08:00 +31°C° 0 mm 10 m/s 679 mmHg 16%
    09:00 +33°C° 0 mm 11 m/s 679 mmHg 15%
    10:00 +34°C° 0 mm 12 m/s 679 mmHg 14%
    11:00 +36°C° 0 mm 12 m/s 679 mmHg 13%
    12:00 +36°C° 0 mm 12 m/s 678 mmHg 13%
    13:00 +37°C° 0 mm 12 m/s 678 mmHg 12%
    14:00 +37°C° 0 mm 11 m/s 678 mmHg 12%
    15:00 +37°C° 0 mm 11 m/s 678 mmHg 12%
    16:00 +37°C° 0 mm 11 m/s 677 mmHg 12%
    17:00 +34°C° 0 mm 10 m/s 677 mmHg 12%
    18:00 +32°C° 0 mm 9 m/s 677 mmHg 13%
    19:00 +31°C° 0 mm 9 m/s 677 mmHg 14%
    20:00 +29°C° 0 mm 8 m/s 677 mmHg 14%
    21:00 +28°C° 0 mm 7 m/s 677 mmHg 14%
    22:00 +26°C° 0 mm 7 m/s 678 mmHg 15%
    23:00 +26°C° 0 mm 6 m/s 677 mmHg 15%
    Voir plus